Hourly Weather Roundup
Issued by NWS Central Illinois

Home | Current Version | Previous Version | Text Only | Print | Product List | Glossary On
Versions: 1 2 3 4 5 6 7 8 9 10 11 12 13 14 15 16 17 18 19 20 21 22 23 24 25 26 27 28 29 30 31 32 33 34 35 36 37 38 39 40 41 42 43 44 45 46 47 48 49 50
445
NZUS43 KILX 280810
HWRILX

AREA WEATHER ROUNDUP
NATIONAL WEATHER SERVICE, LINCOLN IL
300 AM CDT SAT MAY 28 2016


CITY           SKY/WX    TMP DP  RH WIND       PRES   REMARKS
BLOOMINGTON    CLOUDY    69  68  97 S16       29.86F
CHAMPAIGN      CLOUDY    71  64  78 S18       29.89R
DANVILLE       PTCLDY    69  64  85 S13       29.88F
DECATUR        CLOUDY    71  65  81 S14       29.87R
EFFINGHAM      CLOUDY    70  67  92 SE8       29.93R
FLORA          CLOUDY    71  67  86 S7        29.92S
GALESBURG      CLOUDY    68  66  94 S15       29.77S
JACKSONVILLE   CLOUDY    70  67  90 S12G17    29.82R
LACON          CLOUDY    69  65  85 S12       29.80S
LAWRENCEVILLE  PTCLDY    74  65  73 S14       29.93F
LITCHFIELD     CLOUDY    68  64  86 S12       29.87R
$$


CITY           SKY/WX    TMP DP  RH WIND       PRES   REMARKS
LINCOLN        CLOUDY    71  67  88 S15       29.83S
MACOMB         CLOUDY    69  67  94 S10       29.80S
MATTOON        CLOUDY    70  63  78 S9        29.90R
MT CARMEL AP   PTCLDY    74  64  69 S10       29.93S
OLNEY-NOBLE AP CLOUDY    72  66  83 S10       29.93R
PARIS          PTCLDY    70  65  83 S9        29.92S
PEORIA         CLOUDY    70  66  87 S16       29.80S
PONTIAC        CLOUDY    70  67  92 SE9       29.86S
RANTOUL        PTCLDY    73  66  80 S15       29.88S
ROBINSON       PTCLDY    72  64  77 S9        29.93S
SPRINGFIELD    CLOUDY    72  66  81 S14       29.84R
TAYLORVILLE    CLOUDY    69  66  90 S14G22    29.86R
$$

...REGIONAL REPORTS...


CITY           SKY/WX    TMP DP  RH WIND       PRES   REMARKS
CHICAGO O`HARE CLOUDY    68  65  90 S8        29.85F
KANKAKEE       CLOUDY    69  64  85 SE8       29.88F
MOLINE         CLOUDY    71  65  81 S14G21    29.74S
MOUNT STERLING CLOUDY    68  66  94 S10       29.79S
MOUNT VERNON   CLOUDY    70  63  78 S9        29.91S
PITTSFIELD     MOCLDY    69  68  94 S10       29.82S
QUINCY         CLOUDY    69  66  90 S10       29.78S
ROCKFORD       CLOUDY    70  65  84 S16       29.82F
$$


CITY           SKY/WX    TMP DP  RH WIND       PRES   REMARKS
BURLINGTON     LGT RAIN  67  66  97 S16       29.75R
CEDAR RAPIDS   LGT RAIN  64  64 100 CALM      29.70F
DES MOINES     CLOUDY    64  60  87 S6        29.72F
KIRKSVILLE     CLOUDY    65  64  97 CALM      29.77R
OTTUMWA        LGT RAIN  63  63 100 CALM      29.76S FOG
ST LOUIS       PTCLDY    70  65  84 S8        29.85R
$$


CITY           SKY/WX    TMP DP  RH WIND       PRES   REMARKS
TERRE HAUTE    CLOUDY    74  63  68 S13       29.94R
EVANSVILLE     CLOUDY    74  64  71 SE5       29.95F
INDIANAPOLIS   CLOUDY    73  64  73 S9        29.95R
LAFAYETTE      CLOUDY    73  62  68 S7        29.92R
MADISON        CLOUDY    69  66  90 S15       29.79R
MILWAUKEE      CLOUDY    70  64  81 S12       29.84R
$$






USA.gov is the U.S. government's official web portal to all federal, state and local government web resources and services.